Time,TemperatureF,DewpointF,PressureIn,WindDirection,WindDirectionDegrees,WindSpeedMPH,WindSpeedGustMPH,Humidity,HourlyPrecipIn,Conditions,Clouds,dailyrainin,SoftwareType,DateUTC
2013-06-02 00:01:00,55.4,30.0,29.97,WSW,241,0.0,0.0,38,0.00,,,0.00,WUHU216WMR968SP,2013-06-02 07:01:00,
2013-06-02 00:06:00,55.2,30.5,29.97,WSW,241,0.0,0.0,39,0.00,,,0.00,WUHU216WMR968SP,2013-06-02 07:06:00,
2013-06-02 00:11:00,55.0,30.3,29.97,WSW,241,0.0,0.0,39,0.00,,,0.00,WUHU216WMR968SP,2013-06-02 07:11:00,
2013-06-02 00:16:00,54.9,30.2,29.97,WSW,241,0.0,0.0,39,0.00,,,0.00,WUHU216WMR968SP,2013-06-02 07:16:00,
2013-06-02 00:21:00,54.5,29.9,29.97,WSW,241,0.0,0.0,39,0.00,,,0.00,WUHU216WMR968SP,2013-06-02 07:21:00,
2013-06-02 00:26:00,54.3,30.3,29.97,WSW,241,0.0,0.0,40,0.00,,,0.00,WUHU216WMR968SP,2013-06-02 07:26:00,
2013-06-02 00:31:00,54.3,30.3,29.97,WSW,241,0.0,0.0,40,0.00,,,0.00,WUHU216WMR968SP,2013-06-02 07:31:00,
2013-06-02 00:36:00,54.1,30.1,29.97,WSW,241,0.0,0.0,40,0.00,,,0.00,WUHU216WMR968SP,2013-06-02 07:36:00,
2013-06-02 00:41:00,54.0,30.0,29.97,WSW,241,0.0,0.0,40,0.00,,,0.00,WUHU216WMR968SP,2013-06-02 07:41:00,
2013-06-02 00:46:00,53.8,29.9,29.97,WSW,241,0.0,0.0,40,0.00,,,0.00,WUHU216WMR968SP,2013-06-02 07:46:00,
2013-06-02 00:51:00,53.4,30.1,29.97,WSW,241,0.0,0.0,41,0.00,,,0.00,WUHU216WMR968SP,2013-06-02 07:51:00,
2013-06-02 00:56:00,53.2,29.9,29.97,WSW,241,0.0,0.0,41,0.00,,,0.00,WUHU216WMR968SP,2013-06-02 07:56:00,
2013-06-02 01:01:00,53.1,29.8,29.97,WSW,241,0.0,0.0,41,0.00,,,0.00,WUHU216WMR968SP,2013-06-02 08:01:00,
2013-06-02 01:06:00,53.1,29.8,29.97,WSW,241,0.0,0.0,41,0.00,,,0.00,WUHU216WMR968SP,2013-06-02 08:06:00,
2013-06-02 01:11:00,52.9,32.0,29.97,WSW,241,0.0,0.0,42,0.00,,,0.00,WUHU216WMR968SP,2013-06-02 08:11:00,
2013-06-02 01:16:00,52.5,29.9,29.97,WSW,241,0.0,0.0,42,0.00,,,0.00,WUHU216WMR968SP,2013-06-02 08:16:00,
2013-06-02 01:21:00,52.3,29.7,29.97,WSW,241,0.0,0.0,42,0.00,,,0.00,WUHU216WMR968SP,2013-06-02 08:21:00,
2013-06-02 01:26:00,52.2,30.2,29.97,WSW,241,0.0,0.0,43,0.00,,,0.00,WUHU216WMR968SP,2013-06-02 08:26:00,
2013-06-02 01:31:00,52.0,30.1,29.97,WSW,241,0.0,0.0,43,0.00,,,0.00,WUHU216WMR968SP,2013-06-02 08:31:00,
2013-06-02 01:36:00,51.8,29.9,29.97,WSW,241,0.0,0.0,43,0.00,,,0.00,WUHU216WMR968SP,2013-06-02 08:36:00,
2013-06-02 01:41:00,51.6,30.3,29.97,WSW,241,0.0,0.0,44,0.00,,,0.00,WUHU216WMR968SP,2013-06-02 08:41:00,
2013-06-02 01:46:00,51.4,32.0,29.97,WSW,241,0.0,0.0,45,0.00,,,0.00,WUHU216WMR968SP,2013-06-02 08:46:00,
2013-06-02 01:51:00,51.3,32.0,29.97,WSW,241,0.0,0.0,46,0.00,,,0.00,WUHU216WMR968SP,2013-06-02 08:51:00,
2013-06-02 01:56:00,51.3,32.0,29.97,WSW,241,0.0,0.0,46,0.00,,,0.00,WUHU216WMR968SP,2013-06-02 08:56:00,
2013-06-02 02:01:00,51.3,32.0,29.97,WSW,241,0.0,0.0,46,0.00,,,0.00,WUHU216WMR968SP,2013-06-02 09:01:00,
2013-06-02 02:06:00,51.1,32.0,29.97,WSW,241,0.0,0.0,47,0.00,,,0.00,WUHU216WMR968SP,2013-06-02 09:06:00,
2013-06-02 02:11:00,51.3,32.0,29.97,WSW,241,0.0,0.0,47,0.00,,,0.00,WUHU216WMR968SP,2013-06-02 09:11:00,
2013-06-02 02:16:00,51.3,32.0,29.97,WSW,241,0.0,0.0,48,0.00,,,0.00,WUHU216WMR968SP,2013-06-02 09:16:00,
2013-06-02 02:21:00,51.4,32.0,29.97,WSW,241,0.0,0.0,48,0.00,,,0.00,WUHU216WMR968SP,2013-06-02 09:21:00,
2013-06-02 02:26:00,51.6,33.8,29.97,WSW,241,0.0,0.0,49,0.00,,,0.00,WUHU216WMR968SP,2013-06-02 09:26:00,
2013-06-02 02:31:00,51.4,33.8,29.97,WSW,241,0.0,0.0,49,0.00,,,0.00,WUHU216WMR968SP,2013-06-02 09:31:00,
2013-06-02 02:36:00,51.6,33.8,29.97,WSW,241,0.0,0.0,50,0.00,,,0.00,WUHU216WMR968SP,2013-06-02 09:36:00,
2013-06-02 02:41:00,51.8,33.8,29.97,WSW,241,0.0,0.0,50,0.00,,,0.00,WUHU216WMR968SP,2013-06-02 09:41:00,
2013-06-02 02:46:00,51.8,33.8,29.97,WSW,241,0.0,0.0,51,0.00,,,0.00,WUHU216WMR968SP,2013-06-02 09:46:00,
2013-06-02 02:51:00,51.8,33.8,29.97,WSW,241,0.0,0.0,51,0.00,,,0.00,WUHU216WMR968SP,2013-06-02 09:51:00,
2013-06-02 03:35:00,52.9,35.6,29.97,WSW,241,0.0,0.0,51,0.00,,,0.00,WUHU216WMR968SP,2013-06-02 10:35:00,
2013-06-02 03:40:00,53.1,35.6,29.97,WSW,241,0.0,0.0,51,0.00,,,0.00,WUHU216WMR968SP,2013-06-02 10:40:00,
2013-06-02 03:45:00,53.1,35.6,29.97,WSW,241,0.0,0.0,51,0.00,,,0.00,WUHU216WMR968SP,2013-06-02 10:45:00,
2013-06-02 03:50:00,53.1,35.6,29.97,WSW,241,0.0,0.0,50,0.00,,,0.00,WUHU216WMR968SP,2013-06-02 10:50:00,
2013-06-02 03:55:00,53.4,35.6,29.97,WSW,241,0.0,0.0,50,0.00,,,0.00,WUHU216WMR968SP,2013-06-02 10:55:00,
2013-06-02 04:00:00,53.6,35.6,29.97,WSW,241,0.0,0.0,49,0.00,,,0.00,WUHU216WMR968SP,2013-06-02 11:00:00,
2013-06-02 04:05:00,53.6,33.8,29.97,WSW,241,0.0,0.0,48,0.00,,,0.00,WUHU216WMR968SP,2013-06-02 11:05:00,
2013-06-02 04:10:00,53.6,33.8,29.97,WSW,241,0.0,0.0,47,0.00,,,0.00,WUHU216WMR968SP,2013-06-02 11:10:00,
2013-06-02 04:15:00,53.8,33.8,29.97,WSW,241,0.0,0.0,47,0.00,,,0.00,WUHU216WMR968SP,2013-06-02 11:15:00,
2013-06-02 04:20:00,53.8,33.8,29.97,WSW,241,0.0,0.0,47,0.00,,,0.00,WUHU216WMR968SP,2013-06-02 11:20:00,
2013-06-02 04:25:00,54.0,33.8,29.97,WSW,241,0.0,0.0,46,0.00,,,0.00,WUHU216WMR968SP,2013-06-02 11:25:00,
2013-06-02 04:30:00,54.0,33.8,29.97,WSW,241,0.0,0.0,46,0.00,,,0.00,WUHU216WMR968SP,2013-06-02 11:30:00,
2013-06-02 04:35:00,54.1,32.0,29.97,WSW,241,0.0,0.0,45,0.00,,,0.00,WUHU216WMR968SP,2013-06-02 11:35:00,
2013-06-02 04:40:00,54.1,32.0,29.97,WSW,241,0.0,0.0,45,0.00,,,0.00,WUHU216WMR968SP,2013-06-02 11:40:00,
2013-06-02 04:45:00,54.1,32.0,29.97,WSW,241,0.0,0.0,45,0.00,,,0.00,WUHU216WMR968SP,2013-06-02 11:45:00,
2013-06-02 04:50:00,54.1,32.0,29.97,WSW,241,0.0,0.0,45,0.00,,,0.00,WUHU216WMR968SP,2013-06-02 11:50:00,
2013-06-02 04:55:00,54.1,32.0,29.97,WSW,241,0.0,0.0,45,0.00,,,0.00,WUHU216WMR968SP,2013-06-02 11:55:00,
2013-06-02 05:00:00,54.1,32.0,29.97,WSW,241,0.0,0.0,44,0.00,,,0.00,WUHU216WMR968SP,2013-06-02 12:00:00,
2013-06-02 05:05:00,54.0,32.0,29.97,WSW,241,0.0,0.0,44,0.00,,,0.00,WUHU216WMR968SP,2013-06-02 12:05:00,
2013-06-02 05:10:00,54.1,32.0,29.97,WSW,241,0.0,0.0,44,0.00,,,0.00,WUHU216WMR968SP,2013-06-02 12:10:00,
2013-06-02 05:15:00,53.8,32.0,29.97,WSW,241,0.0,0.0,45,0.00,,,0.00,WUHU216WMR968SP,2013-06-02 12:15:00,
2013-06-02 05:20:00,53.8,32.0,29.97,WSW,241,0.0,0.0,45,0.00,,,0.00,WUHU216WMR968SP,2013-06-02 12:20:00,
2013-06-02 05:25:00,53.8,32.0,29.97,WSW,241,0.0,0.0,45,0.00,,,0.00,WUHU216WMR968SP,2013-06-02 12:25:00,
2013-06-02 05:30:00,53.8,33.8,29.97,WSW,241,0.0,0.0,46,0.00,,,0.00,WUHU216WMR968SP,2013-06-02 12:30:00,
2013-06-02 05:35:00,53.8,33.8,30.00,WSW,241,0.0,0.0,46,0.00,,,0.00,WUHU216WMR968SP,2013-06-02 12:35:00,
2013-06-02 05:40:00,53.8,33.8,30.00,WSW,240,0.0,0.0,46,0.00,,,0.00,WUHU216WMR968SP,2013-06-02 12:40:00,
2013-06-02 05:45:00,53.8,33.8,30.00,WSW,240,0.0,0.0,46,0.00,,,0.00,WUHU216WMR968SP,2013-06-02 12:45:00,
2013-06-02 05:50:00,54.0,33.8,30.00,WSW,240,0.0,0.0,46,0.00,,,0.00,WUHU216WMR968SP,2013-06-02 12:50:00,
2013-06-02 05:55:00,54.0,33.8,30.00,SW,234,0.0,0.0,46,0.00,,,0.00,WUHU216WMR968SP,2013-06-02 12:55:00,
2013-06-02 06:00:00,54.1,33.8,30.00,SW,219,0.0,0.0,46,0.00,,,0.00,WUHU216WMR968SP,2013-06-02 13:00:00,
2013-06-02 06:05:00,54.3,33.8,29.97,SW,221,0.0,0.0,46,0.00,,,0.00,WUHU216WMR968SP,2013-06-02 13:05:00,
2013-06-02 06:10:00,54.5,33.8,29.97,SW,218,0.0,2.7,45,0.00,,,0.00,WUHU216WMR968SP,2013-06-02 13:10:00,
2013-06-02 06:15:00,54.3,32.0,29.97,SW,219,0.0,2.7,44,0.00,,,0.00,WUHU216WMR968SP,2013-06-02 13:15:00,
2013-06-02 06:20:00,54.3,32.0,30.00,SW,220,0.0,0.0,44,0.00,,,0.00,WUHU216WMR968SP,2013-06-02 13:20:00,
2013-06-02 06:25:00,54.3,32.0,30.00,SW,220,0.0,0.0,44,0.00,,,0.00,WUHU216WMR968SP,2013-06-02 13:25:00,
2013-06-02 06:30:00,54.3,32.0,30.00,SW,216,0.0,0.0,45,0.00,,,0.00,WUHU216WMR968SP,2013-06-02 13:30:00,
2013-06-02 06:35:00,54.3,32.0,30.00,SW,216,0.0,0.0,45,0.00,,,0.00,WUHU216WMR968SP,2013-06-02 13:35:00,
2013-06-02 06:40:00,54.5,33.8,30.00,SW,216,0.0,0.0,45,0.00,,,0.00,WUHU216WMR968SP,2013-06-02 13:40:00,
2013-06-02 06:45:00,54.5,33.8,30.00,SW,216,0.0,0.0,45,0.00,,,0.00,WUHU216WMR968SP,2013-06-02 13:45:00,
2013-06-02 06:50:00,54.3,32.0,30.00,SW,214,0.0,0.0,44,0.00,,,0.00,WUHU216WMR968SP,2013-06-02 13:50:00,
2013-06-02 06:55:00,54.5,33.8,30.00,SSW,213,0.0,0.0,44,0.00,,,0.00,WUHU216WMR968SP,2013-06-02 13:55:00,
2013-06-02 07:00:00,54.3,32.0,30.00,SSW,212,0.0,0.0,44,0.00,,,0.00,WUHU216WMR968SP,2013-06-02 14:00:00,
2013-06-02 07:05:00,54.5,33.8,30.00,SW,214,0.0,0.0,44,0.00,,,0.00,WUHU216WMR968SP,2013-06-02 14:05:00,
2013-06-02 07:10:00,54.5,33.8,30.00,SW,214,0.0,0.0,44,0.00,,,0.00,WUHU216WMR968SP,2013-06-02 14:10:00,
2013-06-02 07:15:00,54.3,32.0,30.00,SSW,213,0.0,0.0,44,0.00,,,0.00,WUHU216WMR968SP,2013-06-02 14:15:00,
2013-06-02 07:20:00,54.5,33.8,30.00,SW,214,0.0,0.0,44,0.00,,,0.00,WUHU216WMR968SP,2013-06-02 14:20:00,
2013-06-02 07:25:00,54.5,33.8,30.00,WNW,294,0.0,0.0,44,0.00,,,0.00,WUHU216WMR968SP,2013-06-02 14:25:00,
2013-06-02 07:30:00,54.5,33.8,30.00,West,268,0.0,0.0,44,0.00,,,0.00,WUHU216WMR968SP,2013-06-02 14:30:00,
2013-06-02 07:35:00,54.5,33.8,30.00,West,270,0.0,0.0,43,0.00,,,0.00,WUHU216WMR968SP,2013-06-02 14:35:00,
2013-06-02 07:40:00,54.5,33.8,30.00,NNW,330,0.0,4.0,43,0.00,,,0.00,WUHU216WMR968SP,2013-06-02 14:40:00,
2013-06-02 07:45:00,54.5,32.0,30.00,WSW,243,4.0,5.4,42,0.00,,,0.00,WUHU216WMR968SP,2013-06-02 14:45:00,
2013-06-02 07:50:00,54.5,32.0,30.00,WNW,282,0.0,5.4,42,0.00,,,0.00,WUHU216WMR968SP,2013-06-02 14:50:00,
2013-06-02 07:55:00,54.5,32.0,30.00,WNW,283,0.0,4.0,42,0.00,,,0.00,WUHU216WMR968SP,2013-06-02 14:55:00,
2013-06-02 08:00:00,54.5,32.0,30.00,West,267,0.0,0.0,42,0.00,,,0.00,WUHU216WMR968SP,2013-06-02 15:00:00,
2013-06-02 08:05:00,54.7,32.0,30.00,West,275,2.2,4.0,42,0.00,,,0.00,WUHU216WMR968SP,2013-06-02 15:05:00,
2013-06-02 08:10:00,54.9,32.0,30.00,SW,219,0.0,4.0,41,0.00,,,0.00,WUHU216WMR968SP,2013-06-02 15:10:00,
2013-06-02 08:15:00,54.9,32.0,30.00,WNW,292,3.6,4.9,40,0.00,,,0.00,WUHU216WMR968SP,2013-06-02 15:15:00,
2013-06-02 08:20:00,55.0,32.0,30.00,WNW,282,2.7,5.8,40,0.00,,,0.00,WUHU216WMR968SP,2013-06-02 15:20:00,
2013-06-02 08:25:00,55.2,32.0,30.00,WSW,256,2.7,5.8,40,0.00,,,0.00,WUHU216WMR968SP,2013-06-02 15:25:00,
2013-06-02 08:30:00,55.0,30.3,30.00,WNW,294,4.0,5.8,39,0.00,,,0.00,WUHU216WMR968SP,2013-06-02 15:30:00,
2013-06-02 08:35:00,55.2,30.5,30.00,NNW,329,0.0,5.8,39,0.00,,,0.00,WUHU216WMR968SP,2013-06-02 15:35:00,
2013-06-02 08:40:00,55.2,32.0,30.00,WSW,239,0.0,4.9,40,0.00,,,0.00,WUHU216WMR968SP,2013-06-02 15:40:00,
2013-06-02 08:45:00,55.2,30.5,30.00,SW,232,2.2,4.9,39,0.00,,,0.00,WUHU216WMR968SP,2013-06-02 15:45:00,
2013-06-02 08:50:00,55.2,32.0,30.00,West,262,0.0,5.4,40,0.00,,,0.00,WUHU216WMR968SP,2013-06-02 15:50:00,
2013-06-02 08:55:00,55.2,32.0,30.00,SW,224,3.6,5.4,40,0.00,,,0.00,WUHU216WMR968SP,2013-06-02 15:55:00,
2013-06-02 09:00:00,55.4,30.7,30.00,North,5,0.0,4.9,39,0.00,,,0.00,WUHU216WMR968SP,2013-06-02 16:00:00,
2013-06-02 09:05:00,55.6,30.8,30.00,SSE,168,2.2,4.9,39,0.00,,,0.00,WUHU216WMR968SP,2013-06-02 16:05:00,
2013-06-02 09:10:00,55.4,30.7,30.00,WSW,238,0.0,3.6,39,0.00,,,0.00,WUHU216WMR968SP,2013-06-02 16:10:00,
2013-06-02 09:15:00,55.6,30.8,30.00,WSW,237,0.0,3.6,39,0.00,,,0.00,WUHU216WMR968SP,2013-06-02 16:15:00,
2013-06-02 09:20:00,55.8,30.4,30.00,WSW,244,2.2,5.8,38,0.00,,,0.00,WUHU216WMR968SP,2013-06-02 16:20:00,
2013-06-02 09:25:00,55.8,30.4,30.00,SW,226,4.0,5.8,38,0.00,,,0.00,WUHU216WMR968SP,2013-06-02 16:25:00,
2013-06-02 09:30:00,56.1,31.3,30.00,SW,226,0.0,5.8,39,0.00,,,0.00,WUHU216WMR968SP,2013-06-02 16:30:00,
2013-06-02 09:35:00,56.3,32.0,30.00,South,182,0.0,3.1,38,0.00,,,0.00,WUHU216WMR968SP,2013-06-02 16:35:00,
2013-06-02 09:40:00,56.7,32.0,30.00,NW,312,2.7,3.6,38,0.00,,,0.00,WUHU216WMR968SP,2013-06-02 16:40:00,
2013-06-02 09:45:00,57.0,32.0,30.00,WSW,241,0.0,3.6,37,0.00,,,0.00,WUHU216WMR968SP,2013-06-02 16:45:00,
2013-06-02 09:50:00,57.0,30.1,30.00,SW,222,0.0,4.0,36,0.00,,,0.00,WUHU216WMR968SP,2013-06-02 16:50:00,
2013-06-02 09:55:00,57.6,30.6,30.00,SW,225,2.2,4.0,36,0.00,,,0.00,WUHU216WMR968SP,2013-06-02 16:55:00,
2013-06-02 10:00:00,57.7,30.0,30.00,WNW,296,3.6,4.5,35,0.00,,,0.00,WUHU216WMR968SP,2013-06-02 17:00:00,
2013-06-02 10:05:00,58.1,32.0,30.00,NW,310,0.0,4.9,35,0.00,,,0.00,WUHU216WMR968SP,2013-06-02 17:05:00,
2013-06-02 10:10:00,58.3,29.8,30.00,WSW,256,2.7,5.8,34,0.00,,,0.00,WUHU216WMR968SP,2013-06-02 17:10:00,
2013-06-02 10:15:00,58.6,30.1,30.00,West,271,2.2,5.8,34,0.00,,,0.00,WUHU216WMR968SP,2013-06-02 17:15:00,
2013-06-02 10:20:00,58.6,30.1,30.00,NW,316,3.6,5.8,34,0.00,,,0.00,WUHU216WMR968SP,2013-06-02 17:20:00,
2013-06-02 10:25:00,58.6,32.0,30.00,SW,233,2.7,5.8,35,0.00,,,0.00,WUHU216WMR968SP,2013-06-02 17:25:00,
2013-06-02 10:30:00,58.1,29.6,30.00,SW,228,2.2,4.0,34,0.00,,,0.00,WUHU216WMR968SP,2013-06-02 17:30:00,
2013-06-02 10:35:00,57.9,30.2,30.00,SW,226,0.0,4.0,35,0.00,,,0.00,WUHU216WMR968SP,2013-06-02 17:35:00,
2013-06-02 10:40:00,57.9,30.2,30.00,SW,227,0.0,3.6,35,0.00,,,0.00,WUHU216WMR968SP,2013-06-02 17:40:00,
2013-06-02 10:45:00,58.1,32.0,30.00,SW,227,2.2,3.1,35,0.00,,,0.00,WUHU216WMR968SP,2013-06-02 17:45:00,
2013-06-02 10:50:00,58.5,32.0,30.00,SW,227,0.0,3.1,35,0.00,,,0.00,WUHU216WMR968SP,2013-06-02 17:50:00,
2013-06-02 10:55:00,58.8,30.3,30.00,SW,226,0.0,3.1,34,0.00,,,0.00,WUHU216WMR968SP,2013-06-02 17:55:00,
2013-06-02 11:00:00,59.2,30.6,30.00,SW,227,0.0,2.7,34,0.00,,,0.00,WUHU216WMR968SP,2013-06-02 18:00:00,
2013-06-02 11:05:00,59.7,29.6,30.00,SSE,155,0.0,2.2,32,0.00,,,0.00,WUHU216WMR968SP,2013-06-02 18:05:00,
2013-06-02 11:10:00,59.7,28.8,30.00,SSE,150,0.0,2.7,31,0.00,,,0.00,WUHU216WMR968SP,2013-06-02 18:10:00,
2013-06-02 11:15:00,60.4,27.8,30.00,NW,321,2.2,4.9,29,0.00,,,0.00,WUHU216WMR968SP,2013-06-02 18:15:00,
2013-06-02 11:20:00,61.0,27.5,30.00,SW,219,2.2,4.9,28,0.00,,,0.00,WUHU216WMR968SP,2013-06-02 18:20:00,
2013-06-02 11:25:00,60.8,26.4,30.00,South,186,3.6,4.0,27,0.00,,,0.00,WUHU216WMR968SP,2013-06-02 18:25:00,
2013-06-02 11:30:00,60.6,26.2,30.00,SW,215,2.7,4.0,27,0.00,,,0.00,WUHU216WMR968SP,2013-06-02 18:30:00,
2013-06-02 11:35:00,60.4,26.9,30.00,SW,222,2.2,4.0,28,0.00,,,0.00,WUHU216WMR968SP,2013-06-02 18:35:00,
2013-06-02 11:40:00,61.2,27.6,30.00,SE,133,2.2,3.6,28,0.00,,,0.00,WUHU216WMR968SP,2013-06-02 18:40:00,
2013-06-02 11:45:00,62.1,27.5,30.00,SE,131,2.2,3.6,27,0.00,,,0.00,WUHU216WMR968SP,2013-06-02 18:45:00,
2013-06-02 11:50:00,63.0,27.4,30.00,SSW,212,3.1,3.6,26,0.00,,,0.00,WUHU216WMR968SP,2013-06-02 18:50:00,
2013-06-02 11:55:00,63.3,26.7,30.00,NW,320,3.6,4.9,25,0.00,,,0.00,WUHU216WMR968SP,2013-06-02 18:55:00,
2013-06-02 12:00:00,63.7,27.1,30.00,SSW,197,0.0,4.9,25,0.00,,,0.00,WUHU216WMR968SP,2013-06-02 19:00:00,
2013-06-02 12:05:00,63.1,26.6,30.00,SW,219,3.6,4.9,25,0.00,,,0.00,WUHU216WMR968SP,2013-06-02 19:05:00,
2013-06-02 12:10:00,63.3,25.8,30.00,SSW,210,3.6,4.9,24,0.00,,,0.00,WUHU216WMR968SP,2013-06-02 19:10:00,
2013-06-02 12:15:00,64.0,26.3,30.00,SSW,204,3.1,4.9,24,0.00,,,0.00,WUHU216WMR968SP,2013-06-02 19:15:00,
2013-06-02 12:20:00,64.8,27.0,29.97,SSW,204,3.1,6.3,24,0.00,,,0.00,WUHU216WMR968SP,2013-06-02 19:20:00,
2013-06-02 12:25:00,65.7,27.8,29.97,North,357,0.0,6.3,24,0.00,,,0.00,WUHU216WMR968SP,2013-06-02 19:25:00,
2013-06-02 12:30:00,66.2,27.2,29.97,SW,226,3.6,4.9,23,0.00,,,0.00,WUHU216WMR968SP,2013-06-02 19:30:00,
2013-06-02 12:35:00,65.7,26.8,29.97,SW,214,0.0,4.9,23,0.00,,,0.00,WUHU216WMR968SP,2013-06-02 19:35:00,
2013-06-02 12:40:00,66.0,27.0,29.97,NNW,344,4.0,6.3,23,0.00,,,0.00,WUHU216WMR968SP,2013-06-02 19:40:00,
2013-06-02 12:45:00,66.0,27.0,29.97,South,176,2.7,6.3,23,0.00,,,0.00,WUHU216WMR968SP,2013-06-02 19:45:00,
2013-06-02 12:50:00,66.2,27.2,29.97,WSW,241,2.2,5.4,23,0.00,,,0.00,WUHU216WMR968SP,2013-06-02 19:50:00,
2013-06-02 12:55:00,66.0,27.0,29.97,SW,230,4.0,7.2,23,0.00,,,0.00,WUHU216WMR968SP,2013-06-02 19:55:00,
2013-06-02 13:00:00,66.2,26.1,29.97,WNW,293,4.9,7.2,22,0.00,,,0.00,WUHU216WMR968SP,2013-06-02 20:00:00,
2013-06-02 13:05:00,66.4,26.3,29.97,South,191,4.0,7.6,22,0.00,,,0.00,WUHU216WMR968SP,2013-06-02 20:05:00,
2013-06-02 13:10:00,66.6,26.5,29.97,SW,214,4.0,7.6,22,0.00,,,0.00,WUHU216WMR968SP,2013-06-02 20:10:00,
2013-06-02 13:15:00,66.6,26.5,29.97,West,259,4.9,8.1,22,0.00,,,0.00,WUHU216WMR968SP,2013-06-02 20:15:00,
2013-06-02 13:20:00,67.3,27.1,29.97,SW,219,4.0,8.1,22,0.00,,,0.00,WUHU216WMR968SP,2013-06-02 20:20:00,
2013-06-02 13:25:00,68.0,27.6,29.97,SSW,193,2.7,6.3,22,0.00,,,0.00,WUHU216WMR968SP,2013-06-02 20:25:00,
2013-06-02 13:30:00,67.6,27.3,29.97,NW,314,4.0,5.8,22,0.00,,,0.00,WUHU216WMR968SP,2013-06-02 20:30:00,
2013-06-02 13:35:00,68.0,27.6,29.97,NW,317,2.2,5.8,22,0.00,,,0.00,WUHU216WMR968SP,2013-06-02 20:35:00,
2013-06-02 13:40:00,68.5,28.1,29.97,SSW,207,3.6,5.8,22,0.00,,,0.00,WUHU216WMR968SP,2013-06-02 20:40:00,
2013-06-02 13:45:00,68.4,25.7,29.97,SW,227,3.6,5.8,20,0.00,,,0.00,WUHU216WMR968SP,2013-06-02 20:45:00,
2013-06-02 13:50:00,68.0,25.4,29.97,NW,321,5.8,8.7,20,0.00,,,0.00,WUHU216WMR968SP,2013-06-02 20:50:00,
2013-06-02 13:55:00,68.2,25.5,29.97,North,6,4.9,8.7,20,0.00,,,0.00,WUHU216WMR968SP,2013-06-02 20:55:00,
2013-06-02 14:00:00,68.5,25.8,29.97,WNW,295,0.0,11.0,20,0.00,,,0.00,WUHU216WMR968SP,2013-06-02 21:00:00,
2013-06-02 14:05:00,68.7,25.9,29.97,SW,221,3.6,11.0,20,0.00,,,0.00,WUHU216WMR968SP,2013-06-02 21:05:00,
2013-06-02 14:10:00,68.5,25.8,29.97,NW,314,4.0,8.7,20,0.00,,,0.00,WUHU216WMR968SP,2013-06-02 21:10:00,
2013-06-02 14:15:00,68.9,26.1,29.97,South,191,4.9,8.3,20,0.00,,,0.00,WUHU216WMR968SP,2013-06-02 21:15:00,
2013-06-02 14:20:00,68.9,26.1,29.97,WSW,254,5.8,8.7,20,0.00,,,0.00,WUHU216WMR968SP,2013-06-02 21:20:00,
2013-06-02 14:25:00,69.3,26.4,29.97,West,260,3.6,8.7,20,0.00,,,0.00,WUHU216WMR968SP,2013-06-02 21:25:00,
2013-06-02 14:30:00,68.9,26.1,29.97,West,278,4.9,8.7,20,0.00,,,0.00,WUHU216WMR968SP,2013-06-02 21:30:00,
2013-06-02 14:35:00,69.4,26.5,29.97,SSW,213,3.1,10.1,20,0.00,,,0.00,WUHU216WMR968SP,2013-06-02 21:35:00,
2013-06-02 14:40:00,69.3,26.4,29.97,West,267,2.2,13.2,20,0.00,,,0.00,WUHU216WMR968SP,2013-06-02 21:40:00,
2013-06-02 14:45:00,69.6,26.7,29.97,NNW,344,4.5,13.2,20,0.00,,,0.00,WUHU216WMR968SP,2013-06-02 21:45:00,
2013-06-02 14:50:00,69.4,26.5,29.97,WNW,287,2.7,8.7,20,0.00,,,0.00,WUHU216WMR968SP,2013-06-02 21:50:00,
2013-06-02 14:55:00,69.8,25.6,29.97,WSW,244,5.8,8.7,19,0.00,,,0.00,WUHU216WMR968SP,2013-06-02 21:55:00,
2013-06-02 15:00:00,69.1,26.3,29.97,SW,228,7.6,10.5,20,0.00,,,0.00,WUHU216WMR968SP,2013-06-02 22:00:00,
2013-06-02 15:05:00,69.4,26.5,29.97,WSW,240,4.0,10.5,20,0.00,,,0.00,WUHU216WMR968SP,2013-06-02 22:05:00,
2013-06-02 15:10:00,70.3,23.4,29.97,SW,218,3.1,10.1,17,0.00,,,0.00,WUHU216WMR968SP,2013-06-02 22:10:00,
2013-06-02 15:15:00,70.7,23.7,29.97,South,175,2.2,7.6,17,0.00,,,0.00,WUHU216WMR968SP,2013-06-02 22:15:00,
2013-06-02 15:20:00,70.5,23.5,29.97,South,188,2.7,6.3,17,0.00,,,0.00,WUHU216WMR968SP,2013-06-02 22:20:00,
2013-06-02 15:25:00,70.5,23.5,29.97,SW,216,4.5,6.3,17,0.00,,,0.00,WUHU216WMR968SP,2013-06-02 22:25:00,
2013-06-02 15:30:00,70.2,23.3,29.97,West,281,7.6,14.1,17,0.00,,,0.00,WUHU216WMR968SP,2013-06-02 22:30:00,
2013-06-02 15:35:00,70.3,23.4,29.97,NW,323,2.7,14.1,17,0.00,,,0.00,WUHU216WMR968SP,2013-06-02 22:35:00,
2013-06-02 15:40:00,71.2,24.1,29.97,NW,312,0.0,8.1,17,0.00,,,0.00,WUHU216WMR968SP,2013-06-02 22:40:00,
2013-06-02 15:45:00,71.8,23.1,29.97,West,265,2.2,9.6,16,0.00,,,0.00,WUHU216WMR968SP,2013-06-02 22:45:00,
2013-06-02 15:50:00,72.1,23.4,29.97,West,275,4.5,9.6,16,0.00,,,0.00,WUHU216WMR968SP,2013-06-02 22:50:00,
2013-06-02 15:55:00,71.8,23.1,29.97,SW,229,3.6,6.3,16,0.00,,,0.00,WUHU216WMR968SP,2013-06-02 22:55:00,
2013-06-02 16:00:00,71.2,24.1,29.97,South,180,4.9,12.3,17,0.00,,,0.00,WUHU216WMR968SP,2013-06-02 23:00:00,
2013-06-02 16:05:00,70.9,23.9,29.97,SW,229,4.0,12.3,17,0.00,,,0.00,WUHU216WMR968SP,2013-06-02 23:05:00,
2013-06-02 16:10:00,70.2,23.3,29.97,WSW,242,7.6,8.7,17,0.00,,,0.00,WUHU216WMR968SP,2013-06-02 23:10:00,
2013-06-02 16:15:00,71.4,24.3,29.97,NNW,341,4.0,8.7,17,0.00,,,0.00,WUHU216WMR968SP,2013-06-02 23:15:00,
2013-06-02 16:20:00,71.2,24.1,29.97,West,275,8.1,10.5,17,0.00,,,0.00,WUHU216WMR968SP,2013-06-02 23:20:00,
2013-06-02 16:25:00,71.2,24.1,29.97,WSW,252,4.0,10.5,17,0.00,,,0.00,WUHU216WMR968SP,2013-06-02 23:25:00,
2013-06-02 16:30:00,71.4,24.3,29.97,NNW,336,4.0,8.1,17,0.00,,,0.00,WUHU216WMR968SP,2013-06-02 23:30:00,
2013-06-02 16:35:00,72.1,23.4,29.97,WNW,294,0.0,8.7,16,0.00,,,0.00,WUHU216WMR968SP,2013-06-02 23:35:00,
2013-06-02 16:40:00,72.3,23.5,29.97,NW,314,2.2,8.7,16,0.00,,,0.00,WUHU216WMR968SP,2013-06-02 23:40:00,
2013-06-02 16:45:00,72.1,23.4,29.97,NNW,338,2.2,6.3,16,0.00,,,0.00,WUHU216WMR968SP,2013-06-02 23:45:00,
2013-06-02 16:50:00,72.0,23.3,29.97,West,275,2.7,6.3,16,0.00,,,0.00,WUHU216WMR968SP,2013-06-02 23:50:00,
2013-06-02 16:55:00,72.1,23.4,29.97,North,353,4.5,7.6,16,0.00,,,0.00,WUHU216WMR968SP,2013-06-02 23:55:00,
2013-06-02 17:00:00,71.6,23.0,29.97,SSW,198,5.4,8.1,16,0.00,,,0.00,WUHU216WMR968SP,2013-06-03 00:00:00,
2013-06-02 17:05:00,71.8,23.1,29.97,West,276,4.0,8.1,16,0.00,,,0.00,WUHU216WMR968SP,2013-06-03 00:05:00,
2013-06-02 17:10:00,71.8,23.1,29.97,WNW,299,2.7,8.7,16,0.00,,,0.00,WUHU216WMR968SP,2013-06-03 00:10:00,
2013-06-02 17:15:00,71.1,24.0,29.97,West,266,2.7,8.7,17,0.00,,,0.00,WUHU216WMR968SP,2013-06-03 00:15:00,
2013-06-02 17:20:00,71.4,24.3,29.94,SW,221,4.9,8.7,17,0.00,,,0.00,WUHU216WMR968SP,2013-06-03 00:20:00,
2013-06-02 17:25:00,71.1,24.0,29.94,SW,220,4.5,8.7,17,0.00,,,0.00,WUHU216WMR968SP,2013-06-03 00:25:00,
2013-06-02 17:30:00,71.8,23.1,29.94,WNW,284,0.0,8.7,16,0.00,,,0.00,WUHU216WMR968SP,2013-06-03 00:30:00,
2013-06-02 17:35:00,72.3,23.5,29.94,WSW,256,3.6,6.7,16,0.00,,,0.00,WUHU216WMR968SP,2013-06-03 00:35:00,
2013-06-02 17:40:00,72.0,23.3,29.94,NNE,12,2.7,8.3,16,0.00,,,0.00,WUHU216WMR968SP,2013-06-03 00:40:00,
2013-06-02 17:45:00,72.0,23.3,29.94,NNW,342,6.7,8.7,16,0.00,,,0.00,WUHU216WMR968SP,2013-06-03 00:45:00,
2013-06-02 17:50:00,72.0,23.3,29.94,NW,321,4.0,8.7,16,0.00,,,0.00,WUHU216WMR968SP,2013-06-03 00:50:00,
2013-06-02 17:55:00,72.0,23.3,29.94,WNW,285,3.1,6.3,16,0.00,,,0.00,WUHU216WMR968SP,2013-06-03 00:55:00,
2013-06-02 18:00:00,71.6,23.0,29.94,NW,316,0.0,5.8,16,0.00,,,0.00,WUHU216WMR968SP,2013-06-03 01:00:00,
2013-06-02 18:05:00,71.4,24.3,29.94,WSW,238,2.7,5.8,17,0.00,,,0.00,WUHU216WMR968SP,2013-06-03 01:05:00,
2013-06-02 18:10:00,71.2,24.1,29.94,NNW,329,4.9,7.6,17,0.00,,,0.00,WUHU216WMR968SP,2013-06-03 01:10:00,
2013-06-02 18:15:00,71.2,24.1,29.94,WNW,303,4.9,7.6,17,0.00,,,0.00,WUHU216WMR968SP,2013-06-03 01:15:00,
2013-06-02 18:20:00,71.2,24.1,29.94,NW,315,4.9,6.7,17,0.00,,,0.00,WUHU216WMR968SP,2013-06-03 01:20:00,
2013-06-02 18:25:00,70.9,23.9,29.94,NNW,333,4.0,9.6,17,0.00,,,0.00,WUHU216WMR968SP,2013-06-03 01:25:00,
2013-06-02 18:30:00,70.9,23.9,29.94,West,261,3.1,9.6,17,0.00,,,0.00,WUHU216WMR968SP,2013-06-03 01:30:00,
2013-06-02 18:35:00,70.9,23.9,29.94,WSW,252,4.0,8.7,17,0.00,,,0.00,WUHU216WMR968SP,2013-06-03 01:35:00,
2013-06-02 18:40:00,70.9,23.9,29.94,NW,314,0.0,8.7,17,0.00,,,0.00,WUHU216WMR968SP,2013-06-03 01:40:00,
2013-06-02 18:45:00,70.3,23.4,29.94,WNW,300,4.5,8.3,17,0.00,,,0.00,WUHU216WMR968SP,2013-06-03 01:45:00,
2013-06-02 18:50:00,70.0,23.1,29.94,NW,305,2.2,8.3,17,0.00,,,0.00,WUHU216WMR968SP,2013-06-03 01:50:00,
2013-06-02 18:55:00,69.8,23.0,29.94,NW,310,2.2,8.3,17,0.00,,,0.00,WUHU216WMR968SP,2013-06-03 01:55:00,
2013-06-02 19:00:00,69.6,22.8,29.94,WSW,252,2.2,7.6,17,0.00,,,0.00,WUHU216WMR968SP,2013-06-03 02:00:00,
2013-06-02 19:05:00,69.6,22.8,29.94,NW,320,2.7,6.3,17,0.00,,,0.00,WUHU216WMR968SP,2013-06-03 02:05:00,
2013-06-02 19:10:00,70.3,23.4,29.94,NW,321,0.0,5.8,17,0.00,,,0.00,WUHU216WMR968SP,2013-06-03 02:10:00,
2013-06-02 19:15:00,70.2,23.3,29.94,WNW,287,0.0,2.7,17,0.00,,,0.00,WUHU216WMR968SP,2013-06-03 02:15:00,
2013-06-02 19:20:00,69.3,22.6,29.94,NW,317,3.1,6.3,17,0.00,,,0.00,WUHU216WMR968SP,2013-06-03 02:20:00,
2013-06-02 19:25:00,68.4,21.8,29.94,WNW,290,3.1,6.3,17,0.00,,,0.00,WUHU216WMR968SP,2013-06-03 02:25:00,
2013-06-02 19:30:00,68.0,21.5,29.94,NNW,331,3.6,5.4,17,0.00,,,0.00,WUHU216WMR968SP,2013-06-03 02:30:00,
2013-06-02 19:35:00,67.6,21.2,29.94,NW,313,3.6,6.7,17,0.00,,,0.00,WUHU216WMR968SP,2013-06-03 02:35:00,
2013-06-02 19:40:00,67.5,21.1,29.94,NNW,332,3.1,6.7,17,0.00,,,0.00,WUHU216WMR968SP,2013-06-03 02:40:00,
2013-06-02 19:45:00,67.1,24.6,29.94,WSW,246,0.0,6.3,20,0.00,,,0.00,WUHU216WMR968SP,2013-06-03 02:45:00,
2013-06-02 19:50:00,67.1,24.6,29.94,West,271,2.7,5.8,20,0.00,,,0.00,WUHU216WMR968SP,2013-06-03 02:50:00,
2013-06-02 19:55:00,66.9,24.5,29.94,NW,322,0.0,3.6,20,0.00,,,0.00,WUHU216WMR968SP,2013-06-03 02:55:00,
2013-06-02 20:00:00,66.7,24.3,29.94,NW,314,0.0,4.0,20,0.00,,,0.00,WUHU216WMR968SP,2013-06-03 03:00:00,
2013-06-02 20:05:00,66.4,24.0,29.94,WSW,254,0.0,4.0,20,0.00,,,0.00,WUHU216WMR968SP,2013-06-03 03:05:00,
2013-06-02 20:10:00,66.0,23.7,29.94,SW,222,0.0,4.0,20,0.00,,,0.00,WUHU216WMR968SP,2013-06-03 03:10:00,
2013-06-02 20:15:00,65.8,26.9,29.94,NW,319,3.1,5.4,23,0.00,,,0.00,WUHU216WMR968SP,2013-06-03 03:15:00,
2013-06-02 20:20:00,65.5,26.6,29.97,WNW,299,3.1,5.4,23,0.00,,,0.00,WUHU216WMR968SP,2013-06-03 03:20:00,
2013-06-02 20:25:00,65.1,26.3,29.97,West,281,0.0,4.0,23,0.00,,,0.00,WUHU216WMR968SP,2013-06-03 03:25:00,
2013-06-02 20:30:00,64.9,26.1,29.97,West,281,0.0,3.6,23,0.00,,,0.00,WUHU216WMR968SP,2013-06-03 03:30:00,
2013-06-02 20:35:00,64.4,25.7,29.97,NW,308,0.0,3.1,23,0.00,,,0.00,WUHU216WMR968SP,2013-06-03 03:35:00,
2013-06-02 20:40:00,64.2,26.5,29.97,NW,314,0.0,4.9,24,0.00,,,0.00,WUHU216WMR968SP,2013-06-03 03:40:00,
2013-06-02 20:45:00,63.7,26.1,29.97,West,281,0.0,4.9,24,0.00,,,0.00,WUHU216WMR968SP,2013-06-03 03:45:00,
2013-06-02 20:50:00,63.5,25.9,29.97,West,264,2.7,4.9,24,0.00,,,0.00,WUHU216WMR968SP,2013-06-03 03:50:00,
2013-06-02 20:55:00,63.3,25.8,29.97,WNW,301,2.2,4.9,24,0.00,,,0.00,WUHU216WMR968SP,2013-06-03 03:55:00,
2013-06-02 21:00:00,63.0,25.5,29.97,West,264,2.2,3.6,24,0.00,,,0.00,WUHU216WMR968SP,2013-06-03 04:00:00,
2013-06-02 21:01:00,63.0,25.5,29.97,West,264,2.2,3.6,24,0.00,,,0.00,WUHU216WMR968SP,2013-06-03 04:01:00,
2013-06-02 21:06:00,62.4,26.0,29.97,NW,317,0.0,3.6,25,0.00,,,0.00,WUHU216WMR968SP,2013-06-03 04:06:00,
2013-06-02 21:11:00,61.7,25.4,29.97,NW,317,0.0,3.1,25,0.00,,,0.00,WUHU216WMR968SP,2013-06-03 04:11:00,
2013-06-02 21:17:00,61.2,24.9,29.97,West,273,2.7,3.6,25,0.00,,,0.00,WUHU216WMR968SP,2013-06-03 04:17:00,
2013-06-02 21:22:00,60.4,26.1,29.97,SW,236,2.7,4.9,27,0.00,,,0.00,WUHU216WMR968SP,2013-06-03 04:22:00,
2013-06-02 21:27:00,59.7,26.3,29.97,SW,236,0.0,4.9,28,0.00,,,0.00,WUHU216WMR968SP,2013-06-03 04:27:00,
2013-06-02 21:32:00,59.4,26.9,29.97,NW,304,2.7,3.6,29,0.00,,,0.00,WUHU216WMR968SP,2013-06-03 04:32:00,
2013-06-02 21:37:00,59.2,27.6,30.00,NW,304,0.0,3.6,30,0.00,,,0.00,WUHU216WMR968SP,2013-06-03 04:37:00,
2013-06-02 21:42:00,59.4,28.5,30.00,WNW,285,0.0,3.6,31,0.00,,,0.00,WUHU216WMR968SP,2013-06-03 04:42:00,
2013-06-02 21:47:00,59.4,28.5,30.00,WSW,247,0.0,3.6,31,0.00,,,0.00,WUHU216WMR968SP,2013-06-03 04:47:00,
2013-06-02 21:52:00,59.0,28.9,30.00,West,273,3.1,4.0,32,0.00,,,0.00,WUHU216WMR968SP,2013-06-03 04:52:00,
2013-06-02 21:57:00,59.4,29.3,30.00,South,189,2.2,4.9,32,0.00,,,0.00,WUHU216WMR968SP,2013-06-03 04:57:00,
2013-06-02 22:02:00,59.2,28.4,30.00,West,267,2.7,4.9,31,0.00,,,0.00,WUHU216WMR968SP,2013-06-03 05:02:00,
2013-06-02 22:07:00,59.4,28.5,30.00,West,261,0.0,4.0,31,0.00,,,0.00,WUHU216WMR968SP,2013-06-03 05:07:00,
2013-06-02 22:12:00,59.4,27.7,30.00,WNW,300,0.0,4.0,30,0.00,,,0.00,WUHU216WMR968SP,2013-06-03 05:12:00,
2013-06-02 22:17:00,59.4,27.7,30.00,SW,218,0.0,6.3,30,0.00,,,0.00,WUHU216WMR968SP,2013-06-03 05:17:00,
2013-06-02 22:22:00,59.2,27.6,30.00,SW,219,0.0,6.3,30,0.00,,,0.00,WUHU216WMR968SP,2013-06-03 05:22:00,
2013-06-02 22:27:00,58.8,28.0,30.00,West,265,2.2,4.0,31,0.00,,,0.00,WUHU216WMR968SP,2013-06-03 05:27:00,
2013-06-02 22:32:00,58.8,28.0,30.00,WSW,247,3.6,4.0,31,0.00,,,0.00,WUHU216WMR968SP,2013-06-03 05:32:00,
2013-06-02 22:37:00,57.9,28.0,30.00,WSW,247,0.0,4.0,32,0.00,,,0.00,WUHU216WMR968SP,2013-06-03 05:37:00,
2013-06-02 22:42:00,57.6,28.5,30.00,WSW,247,0.0,3.6,33,0.00,,,0.00,WUHU216WMR968SP,2013-06-03 05:42:00,
2013-06-02 22:47:00,57.0,29.4,30.00,WSW,247,0.0,0.0,35,0.00,,,0.00,WUHU216WMR968SP,2013-06-03 05:47:00,
2013-06-02 22:52:00,56.8,29.2,30.00,West,265,0.0,3.6,35,0.00,,,0.00,WUHU216WMR968SP,2013-06-03 05:52:00,
2013-06-02 22:57:00,56.5,29.6,30.00,West,265,0.0,3.6,36,0.00,,,0.00,WUHU216WMR968SP,2013-06-03 05:57:00,
2013-06-02 23:02:00,56.7,29.8,30.00,SW,235,2.7,4.0,36,0.00,,,0.00,WUHU216WMR968SP,2013-06-03 06:02:00,
2013-06-02 23:07:00,56.7,29.8,30.00,WSW,242,2.2,4.0,36,0.00,,,0.00,WUHU216WMR968SP,2013-06-03 06:07:00,
2013-06-02 23:12:00,56.3,29.5,30.00,SW,231,0.0,4.0,36,0.00,,,0.00,WUHU216WMR968SP,2013-06-03 06:12:00,
2013-06-02 23:17:00,56.3,29.5,30.00,SW,233,0.0,3.1,36,0.00,,,0.00,WUHU216WMR968SP,2013-06-03 06:17:00,
2013-06-02 23:22:00,56.3,29.5,30.00,SW,233,0.0,0.0,36,0.00,,,0.00,WUHU216WMR968SP,2013-06-03 06:22:00,
2013-06-02 23:27:00,56.3,29.5,30.00,SW,233,0.0,0.0,36,0.00,,,0.00,WUHU216WMR968SP,2013-06-03 06:27:00,
2013-06-02 23:32:00,56.3,29.5,30.00,SW,233,0.0,0.0,36,0.00,,,0.00,WUHU216WMR968SP,2013-06-03 06:32:00,
2013-06-02 23:37:00,56.3,29.5,30.00,SW,233,0.0,0.0,36,0.00,,,0.00,WUHU216WMR968SP,2013-06-03 06:37:00,
2013-06-02 23:42:00,56.5,29.6,30.00,SW,233,0.0,0.0,36,0.00,,,0.00,WUHU216WMR968SP,2013-06-03 06:42:00,
2013-06-02 23:47:00,56.3,29.5,30.00,SW,233,0.0,2.7,36,0.00,,,0.00,WUHU216WMR968SP,2013-06-03 06:47:00,
2013-06-02 23:52:00,55.9,29.1,30.00,SW,233,0.0,2.7,36,0.00,,,0.00,WUHU216WMR968SP,2013-06-03 06:52:00,
2013-06-02 23:57:00,55.8,29.0,30.00,SW,233,0.0,2.7,36,0.00,,,0.00,WUHU216WMR968SP,2013-06-03 06:57:00,